This demonstration page uses our WeatherBlox Daily Observations layout. Learn more.

Left ArrowRight Arrow

Hourly Observations for May 10, 2015

Temp ( °F °C ) Dew Point ( °F °C ) Humidity (%) Winds ( mph kmh ) Pressure ( in mb ) Visibility ( mi km ) Precip ( " mm )
12:53 am 00:53 Clear 56 13.3 30 -1.1 37 37 N 8 13 29.71 1006 10 16 0.00 0.00
1:53 am 01:53 Clear 55 12.8 30 -1.1 38 38 NNW 9 15 29.70 1006 10 16 0.00 0.00
2:53 am 02:53 Clear 55 12.8 29 -1.7 37 37 N 5 7 29.70 1006 10 16 0.00 0.00
3:53 am 03:53 Mostly Clear 53 11.7 30 -1.1 41 41 NE 6 9 29.72 1006 10 16 0.00 0.00
4:53 am 04:53 Mostly Cloudy 56 13.3 30 -1.1 37 37 SSW 6 9 29.74 1007 10 16 0.00 0.00
5:53 am 05:53 Clear 56 13.3 26 -3.3 32 32 NNW 5 7 29.76 1008 10 16 0.00 0.00
6:53 am 06:53 Clear 51 10.6 27 -2.8 39 39 NNW 10 17 29.78 1009 10 16 0.00 0.00
7:53 am 07:53 Sunny 55 12.8 28 -2.2 35 35 N 6 9 29.80 1009 10 16 0.00 0.00
8:53 am 08:53 Sunny 61 16.1 29 -1.7 30 30 N 7 11 29.83 1010 10 16 0.00 0.00
9:53 am 09:53 Sunny 69 20.6 28 -2.2 22 22 N 9 15 29.83 1010 10 16 0.00 0.00
10:53 am 10:53 Sunny 73 22.8 26 -3.3 17 17 VRB 5 7 29.83 1010 10 16 0.00 0.00
11:53 am 11:53 Sunny 76 24.4 25 -3.9 15 15 Calm 29.82 1010 10 16 0.00 0.00
12:53 pm 12:53 Sunny 77 25 23 -5 13 13 VRB 3 6 29.81 1010 10 16 0.00 0.00
1:53 pm 13:53 Sunny 80 26.7 21 -6.1 11 11 WSW 14 22 29.78 1009 10 16 0.00 0.00
2:53 pm 14:53 Sunny 82 27.8 20 -6.7 10 10 W 15 24 29.77 1008 10 16 0.00 0.00
3:53 pm 15:53 Sunny 83 28.3 16 -8.9 8 8 WSW 10 17 29.77 1008 10 16 0.00 0.00
4:53 pm 16:53 Sunny 84 28.9 18 -7.8 8 8 VRB 5 7 29.74 1007 10 16 0.00 0.00
5:53 pm 17:53 Sunny 84 28.9 17 -8.3 8 8 S 9 15 29.73 1007 10 16 0.00 0.00
6:53 pm 18:53 Sunny 84 28.9 17 -8.3 8 8 SW 3 6 29.73 1007 10 16 0.00 0.00
7:53 pm 19:53 Sunny 82 27.8 17 -8.3 9 9 Calm 29.74 1007 10 16 0.00 0.00
8:53 pm 20:53 Clear 73 22.8 25 -3.9 17 17 NE 8 13 29.77 1008 10 16 0.00 0.00
9:53 pm 21:53 Clear 67 19.4 30 -1.1 25 25 N 3 6 29.80 1009 10 16 0.00 0.00
10:53 pm 22:53 Clear 64 17.8 29 -1.7 27 27 NNW 3 6 29.83 1010 10 16 0.00 0.00
11:53 pm 23:53 Clear 62 16.7 32 0 32 32 Calm 29.84 1011 10 16 0.00 0.00

Powered by AerisWeather